カタログに戻る

FLOCK 4G 9

運用中科学SSO
NORAD 62622·PAYLOAD·🇺🇸 United States

打ち上げ Jan 14, 2025 から Vandenberg Space Force Base

Loading…

次のパス (今後24時間)

TLE

最新Source: CelesTrak SupGP

元期: Sep 14, 2026, 06:45 UTC

1 62622C 25009P   26257.28131944  .00011813  00000+0  41527-3 0  2570
2 62622  97.3907 337.6334 0004753  28.8111 274.2143 15.29408057    19

AllMySatでFLOCK 4G 9をリアルタイム追跡

Download on the App Store